Track STARLINK-3275 now! 10-day predictions STARLINK-3275 is classified as:
1 50188U 21125AJ 22182.39530968 -.00001201 00000-0 -57328-4 0 9996 2 50188 53.2158 167.3506 0002612 47.4363 312.6849 15.08833654 33387